Location: Harlem Springs
(34.1214°N, 117.2262°W)
Time: 13:02:48
(UTC+00:00)

Daily predictions for brighter satellites

Satellite Brightness Start Highest point End
(mag) Time Altitude Azimuth Time Altitude Azimuth Time Altitude Azimuth
NOSS 2-3 (E) 3.4 12:01:25 10° SSW 12:05:20 71° ESE 12:08:57 10° NE
SL-8 Rocket 4.1 12:01:51 10° N 12:08:06 84° E 12:14:16 10° S
Intelsat 5-1 Rocket 4.0 12:11:00 10° SW 12:14:53 32° SSE 12:23:18 10° ESE
Cosmos 1867 4.1 12:10:06 10° NW 12:15:03 36° WSW 12:19:57 10° S
Cosmos 1400 Rocket 3.5 12:15:01 10° NNW 12:18:20 30° W 12:21:38 10° SSW
ADEOS II 3.9 12:17:44 10° NNW 12:20:21 14° WNW 12:22:58 10° W
USA 307 4.4 12:19:27 10° WSW 12:20:40 11° SW 12:21:56 10° SW
SL-24 DEB 4.3 12:17:27 10° S 12:21:52 55° W 12:26:17 10° NNW
Cosmos 1680 Rocket 3.5 12:16:42 10° SSW 12:21:54 76° WNW 12:27:07 10° NNE
Cosmos 1833 Rocket 3.7 12:18:10 10° N 12:23:40 53° ENE 12:29:09 10° SE
